| time (UTC) | temp C | wind direction | speed KPH | gust KPH | rain 1hr cm | rain 24hr cm | rain mn cm | humidity % | barometer mb |
| 20260505100047 | 16 | 221 | 9.7 | 16.1 | 0.00 | 0.00 | 0.00 | 71 | 1014.2 |
| 20260505094546 | 16 | 188 | 8.0 | 17.7 | 0.00 | 0.00 | 0.00 | 70 | 1014.0 |
| 20260505093048 | 16 | 227 | 8.0 | 17.7 | 0.00 | 0.00 | 0.00 | 70 | 1014.1 |
| 20260505091601 | 16 | 225 | 6.4 | 17.7 | 0.00 | 0.00 | 0.00 | 70 | 1014.1 |
| 20260505090048 | 16 | 219 | 6.4 | 14.5 | 0.00 | 0.00 | 0.00 | 69 | 1014.0 |
| 20260505084544 | 17 | 215 | 6.4 | 19.3 | 0.00 | 0.00 | 0.00 | 70 | 1014.0 |
| 20260505083046 | 17 | 227 | 8.0 | 17.7 | 0.00 | 0.00 | 0.00 | 69 | 1014.0 |
| 20260505081557 | 17 | 209 | 8.0 | 16.1 | 0.00 | 0.00 | 0.00 | 68 | 1014.1 |
| 20260505080058 | 17 | 247 | 9.7 | 17.7 | 0.00 | 0.00 | 0.00 | 68 | 1014.0 |
| 20260505074544 | 17 | 231 | 12.9 | 20.9 | 0.00 | 0.00 | 0.00 | 67 | 1013.9 |
| 20260505073051 | 17 | 233 | 12.9 | 19.3 | 0.00 | 0.00 | 0.00 | 68 | 1013.8 |
| 20260505071555 | 17 | 193 | 11.3 | 22.5 | 0.00 | 0.00 | 0.00 | 68 | 1013.7 |
| 20260505070050 | 17 | 207 | 9.7 | 19.3 | 0.00 | 0.00 | 0.00 | 67 | 1013.6 |
| 20260505064545 | 17 | 221 | 9.7 | 19.3 | 0.00 | 0.00 | 0.00 | 68 | 1013.6 |
| 20260505063105 | 17 | 236 | 11.3 | 19.3 | 0.00 | 0.00 | 0.00 | 68 | 1013.7 |
| 20260505061613 | 18 | 236 | 9.7 | 22.5 | 0.00 | 0.00 | 0.00 | 67 | 1013.8 |
| 20260505054554 | 18 | 200 | 14.5 | 20.9 | 0.00 | 0.00 | 0.00 | 67 | 1013.7 |
| 20260505053046 | 18 | 212 | 14.5 | 24.1 | 0.00 | 0.00 | 0.00 | 66 | 1013.8 |
| 20260505051605 | 18 | 226 | 9.7 | 22.5 | 0.00 | 0.00 | 0.00 | 66 | 1013.8 |
| 20260505041550 | 19 | 192 | 16.1 | 30.6 | 0.00 | 0.00 | 0.00 | 66 | 1013.8 |
| 20260505040046 | 19 | 216 | 14.5 | 25.7 | 0.00 | 0.00 | 0.00 | 66 | 1013.8 |
| 20260505034541 | 19 | 214 | 14.5 | 29.0 | 0.00 | 0.00 | 0.00 | 66 | 1013.7 |
| 20260505033042 | 19 | 175 | 17.7 | 29.0 | 0.00 | 0.00 | 0.00 | 66 | 1013.8 |
| 20260505031553 | 19 | 202 | 14.5 | 29.0 | 0.00 | 0.00 | 0.00 | 67 | 1013.7 |
| 20260505030049 | 19 | 182 | 11.3 | 22.5 | 0.00 | 0.00 | 0.00 | 68 | 1013.6 |
| 20260505024551 | 20 | 165 | 16.1 | 24.1 | 0.00 | 0.00 | 0.00 | 68 | 1013.6 |
| 20260505023051 | 20 | 146 | 14.5 | 22.5 | 0.00 | 0.00 | 0.00 | 65 | 1013.4 |
| 20260505021550 | 20 | 155 | 12.9 | 19.3 | 0.00 | 0.00 | 0.00 | 60 | 1013.1 |
| 20260505014554 | 20 | 149 | 4.8 | 6.4 | 0.00 | 0.00 | 0.00 | 54 | 1013.0 |
| 20260505013046 | 20 | 138 | 3.2 | 4.8 | 0.00 | 0.00 | 0.00 | 60 | 1012.9 |
| 20260505011544 | 20 | 153 | 1.6 | 3.2 | 0.00 | 0.00 | 0.00 | 56 | 1012.9 |
| 20260505010108 | 20 | 153 | 3.2 | 6.4 | 0.00 | 0.00 | 0.00 | 58 | 1012.7 |
| 20260505004541 | 21 | 212 | 4.8 | 8.0 | 0.00 | 0.00 | 0.00 | 50 | 1012.7 |
| 20260505003054 | 21 | 181 | 3.2 | 6.4 | 0.00 | 0.00 | 0.00 | 49 | 1012.4 |
| 20260505001550 | 22 | 211 | 3.2 | 9.7 | 0.00 | 0.00 | 0.00 | 48 | 1012.3 |
| 20260505000049 | 22 | 188 | 4.8 | 8.0 | 0.00 | 0.00 | 0.00 | 42 | 1012.3 |
| 20260504234554 | 23 | 195 | 6.4 | 14.5 | 0.00 | 0.00 | 0.00 | 40 | 1012.2 |
| 20260504233103 | 23 | 201 | 9.7 | 16.1 | 0.00 | 0.00 | 0.00 | 40 | 1012.0 |
| 20260504231549 | 24 | 213 | 9.7 | 19.3 | 0.00 | 0.00 | 0.00 | 37 | 1011.8 |
| 20260504230056 | 24 | 226 | 9.7 | 24.1 | 0.00 | 0.00 | 0.00 | 38 | 1011.6 |
| 20260504224552 | 24 | 201 | 9.7 | 19.3 | 0.00 | 0.00 | 0.00 | 37 | 1011.7 |
| 20260504223051 | 25 | 216 | 11.3 | 19.3 | 0.00 | 0.00 | 0.00 | 39 | 1011.8 |
| 20260504221550 | 24 | 208 | 14.5 | 29.0 | 0.00 | 0.00 | 0.00 | 36 | 1011.9 |
| 20260504220054 | 25 | 187 | 14.5 | 27.4 | 0.00 | 0.00 | 0.00 | 36 | 1011.8 |
| 20260504214555 | 24 | 198 | 12.9 | 24.1 | 0.00 | 0.00 | 0.00 | 37 | 1011.8 |
| 20260504213047 | 24 | 213 | 9.7 | 17.7 | 0.00 | 0.00 | 0.00 | 38 | 1012.0 |
| 20260504211547 | 24 | 236 | 9.7 | 27.4 | 0.00 | 0.00 | 0.00 | 38 | 1012.0 |
| 20260504210104 | 23 | 157 | 19.3 | 27.4 | 0.00 | 0.00 | 0.00 | 44 | 1012.1 |
| 20260504204556 | 23 | 203 | 14.5 | 24.1 | 0.00 | 0.00 | 0.00 | 37 | 1012.0 |
| 20260504203100 | 23 | 213 | 8.0 | 16.1 | 0.00 | 0.00 | 0.00 | 35 | 1012.1 |
| 20260504201551 | 23 | 200 | 8.0 | 19.3 | 0.00 | 0.00 | 0.00 | 37 | 1012.3 |
| 20260504200046 | 23 | 233 | 9.7 | 25.7 | 0.00 | 0.00 | 0.00 | 33 | 1012.4 |
| 20260504194546 | 23 | 240 | 11.3 | 25.7 | 0.00 | 0.00 | 0.00 | 31 | 1012.5 |
| 20260504193049 | 23 | 227 | 12.9 | 20.9 | 0.00 | 0.00 | 0.00 | 39 | 1012.6 |
| 20260504191545 | 22 | 237 | 4.8 | 16.1 | 0.00 | 0.00 | 0.00 | 43 | 1012.8 |
| 20260504190106 | 22 | 299 | 8.0 | 19.3 | 0.00 | 0.00 | 0.00 | 38 | 1013.4 |
| 20260504184553 | 22 | 166 | 11.3 | 17.7 | 0.00 | 0.00 | 0.00 | 37 | 1013.5 |
| 20260504183047 | 22 | 219 | 11.3 | 25.7 | 0.00 | 0.00 | 0.00 | 40 | 1013.8 |
| 20260504181551 | 22 | 200 | 14.5 | 24.1 | 0.00 | 0.00 | 0.00 | 35 | 1013.7 |
| 20260504180047 | 22 | 220 | 12.9 | 24.1 | 0.00 | 0.00 | 0.00 | 35 | 1014.2 |
| 20260504174545 | 21 | 234 | 11.3 | 22.5 | 0.00 | 0.00 | 0.00 | 35 | 1014.2 |
| 20260504173047 | 21 | 288 | 11.3 | 22.5 | 0.00 | 0.00 | 0.00 | 34 | 1014.3 |
| 20260504171549 | 21 | 236 | 14.5 | 24.1 | 0.00 | 0.00 | 0.00 | 34 | 1014.6 |